| time (UTC) | temp F | wind direction | speed MPH | gust MPH | rain 1hr in | rain 24hr in | rain mn in | humidity % | barometer mb |
| 20260902144913 | 87 | 227 | 0.0 | 1.0 | 0.00 | 0.00 | 0.00 | 70 | 1015.2 |
| 20260902144409 | 86 | 252 | 1.0 | 2.0 | 0.00 | 0.00 | 0.00 | 70 | 1015.3 |
| 20260902143903 | 86 | 246 | 1.0 | 2.0 | 0.00 | 0.00 | 0.00 | 71 | 1015.2 |
| 20260902143358 | 86 | 251 | 2.0 | 2.0 | 0.00 | 0.00 | 0.00 | 72 | 1015.1 |
| 20260902142853 | 84 | 229 | 1.0 | 2.0 | 0.00 | 0.00 | 0.00 | 72 | 1015.2 |
| 20260902142349 | 85 | 212 | 1.0 | 2.0 | 0.00 | 0.00 | 0.00 | 72 | 1015.1 |
| 20260902141844 | 84 | 221 | 1.0 | 1.0 | 0.00 | 0.00 | 0.00 | 73 | 1015.0 |
| 20260902141340 | 84 | 236 | 2.0 | 2.0 | 0.00 | 0.00 | 0.00 | 74 | 1015.1 |
| 20260902140839 | 84 | 245 | 3.0 | 3.0 | 0.00 | 0.00 | 0.00 | 73 | 1015.1 |
| 20260902140334 | 84 | 220 | 2.0 | 2.0 | 0.00 | 0.00 | 0.00 | 72 | 1015.1 |
| 20260902135834 | 84 | 196 | 3.0 | 3.0 | 0.00 | 0.00 | 0.00 | 74 | 1015.1 |
| 20260902135330 | 83 | 201 | 3.0 | 3.0 | 0.00 | 0.00 | 0.00 | 75 | 1015.1 |
| 20260902134828 | 82 | 218 | 3.0 | 3.0 | 0.00 | 0.00 | 0.00 | 76 | 1015.2 |
| 20260902134325 | 82 | 258 | 1.0 | 1.0 | 0.00 | 0.00 | 0.00 | 76 | 1015.3 |
| 20260902133820 | 82 | 248 | 1.0 | 1.0 | 0.00 | 0.00 | 0.00 | 76 | 1015.3 |
| 20260902133319 | 82 | 225 | 2.0 | 2.0 | 0.00 | 0.00 | 0.00 | 77 | 1014.9 |
| 20260902132815 | 82 | 186 | 2.0 | 3.0 | 0.00 | 0.00 | 0.00 | 78 | 1014.9 |
| 20260902132310 | 81 | 216 | 1.0 | 2.0 | 0.00 | 0.00 | 0.00 | 78 | 1015.0 |
| 20260902131806 | 81 | 225 | 1.0 | 1.0 | 0.00 | 0.00 | 0.00 | 79 | 1014.9 |
| 20260902131302 | 80 | 221 | 1.0 | 1.0 | 0.00 | 0.00 | 0.00 | 79 | 1015.1 |
| 20260902130801 | 80 | 237 | 0.0 | 1.0 | 0.00 | 0.00 | 0.00 | 79 | 1014.8 |
| 20260902130257 | 79 | 238 | 2.0 | 2.0 | 0.00 | 0.00 | 0.00 | 81 | 1014.9 |
| 20260902125752 | 79 | 236 | 2.0 | 2.0 | 0.00 | 0.00 | 0.00 | 82 | 1014.8 |
| 20260902125248 | 78 | 227 | 0.0 | 1.0 | 0.00 | 0.00 | 0.00 | 82 | 1014.9 |
| 20260902124744 | 78 | 241 | 1.0 | 1.0 | 0.00 | 0.00 | 0.00 | 82 | 1014.7 |
| 20260902124240 | 78 | 236 | 1.0 | 1.0 | 0.00 | 0.00 | 0.00 | 83 | 1014.8 |
| 20260902123734 | 78 | 229 | 1.0 | 1.0 | 0.00 | 0.00 | 0.00 | 83 | 1014.9 |
| 20260902123231 | 77 | 255 | 2.0 | 2.0 | 0.00 | 0.00 | 0.00 | 84 | 1014.8 |
| 20260902122729 | 77 | 227 | 0.0 | 1.0 | 0.00 | 0.00 | 0.00 | 86 | 1014.6 |
| 20260902122225 | 76 | 198 | 2.0 | 3.0 | 0.00 | 0.00 | 0.00 | 86 | 1014.6 |
| 20260902121720 | 76 | 235 | 2.0 | 2.0 | 0.00 | 0.00 | 0.00 | 87 | 1014.6 |
| 20260902121215 | 76 | 227 | 1.0 | 1.0 | 0.00 | 0.00 | 0.00 | 87 | 1014.5 |
| 20260902120711 | 75 | 221 | 2.0 | 3.0 | 0.00 | 0.00 | 0.00 | 89 | 1014.8 |
| 20260902120207 | 75 | 202 | 1.0 | 1.0 | 0.00 | 0.00 | 0.00 | 90 | 1014.7 |
| 20260902115706 | 74 | 240 | 1.0 | 1.0 | 0.00 | 0.00 | 0.00 | 90 | 1014.6 |
| 20260902115203 | 74 | 218 | 1.0 | 1.0 | 0.00 | 0.00 | 0.00 | 90 | 1014.5 |
| 20260902114658 | 74 | 240 | 1.0 | 2.0 | 0.00 | 0.00 | 0.00 | 91 | 1014.5 |
| 20260902114153 | 74 | 216 | 3.0 | 3.0 | 0.00 | 0.00 | 0.00 | 91 | 1014.5 |
| 20260902113649 | 74 | 215 | 2.0 | 2.0 | 0.00 | 0.00 | 0.00 | 91 | 1015.0 |
| 20260902113144 | 74 | 220 | 2.0 | 2.0 | 0.00 | 0.00 | 0.00 | 92 | 1014.5 |
| 20260902112638 | 73 | 202 | 3.0 | 3.0 | 0.00 | 0.00 | 0.00 | 92 | 1014.5 |
| 20260902112135 | 73 | 203 | 1.0 | 2.0 | 0.00 | 0.00 | 0.00 | 93 | 1014.7 |
| 20260902111630 | 73 | 212 | 1.0 | 1.0 | 0.00 | 0.00 | 0.00 | 92 | 1014.7 |
| 20260902111126 | 73 | 215 | 0.0 | 0.0 | 0.00 | 0.00 | 0.00 | 93 | 1014.5 |
| 20260902110622 | 73 | 208 | 0.0 | 1.0 | 0.00 | 0.00 | 0.00 | 94 | 1014.8 |
| 20260902110118 | 73 | 201 | 1.0 | 1.0 | 0.00 | 0.00 | 0.00 | 94 | 1014.6 |
| 20260902105617 | 73 | 198 | 1.0 | 1.0 | 0.00 | 0.00 | 0.00 | 94 | 1014.6 |
| 20260902105113 | 73 | 201 | 0.0 | 0.0 | 0.00 | 0.00 | 0.00 | 94 | 1014.7 |
| 20260902104608 | 73 | 208 | 0.0 | 0.0 | 0.00 | 0.00 | 0.00 | 93 | 1014.6 |
| 20260902104103 | 73 | 205 | 0.0 | 0.0 | 0.00 | 0.00 | 0.00 | 93 | 1014.5 |
| 20260902103557 | 73 | 220 | 0.0 | 0.0 | 0.00 | 0.00 | 0.00 | 92 | 1014.4 |
| 20260902103053 | 73 | 220 | 0.0 | 0.0 | 0.00 | 0.00 | 0.00 | 92 | 1014.6 |
| 20260902102549 | 73 | 220 | 0.0 | 0.0 | 0.00 | 0.00 | 0.00 | 92 | 1014.8 |
| 20260902102046 | 73 | 233 | 0.0 | 0.0 | 0.00 | 0.00 | 0.00 | 91 | 1014.5 |
| 20260902101541 | 73 | 231 | 0.0 | 0.0 | 0.00 | 0.00 | 0.00 | 92 | 1014.6 |
| 20260902101040 | 73 | 226 | 0.0 | 0.0 | 0.00 | 0.00 | 0.00 | 92 | 1014.4 |
| 20260902100535 | 73 | 201 | 1.0 | 1.0 | 0.00 | 0.00 | 0.00 | 92 | 1014.7 |
| 20260902100035 | 73 | 234 | 0.0 | 0.0 | 0.00 | 0.00 | 0.00 | 91 | 1014.6 |
| 20260902095534 | 74 | 234 | 0.0 | 0.0 | 0.00 | 0.00 | 0.00 | 91 | 1014.6 |
| 20260902095033 | 74 | 234 | 0.0 | 0.0 | 0.00 | 0.00 | 0.00 | 90 | 1014.7 |
| 20260902094529 | 74 | 234 | 0.0 | 0.0 | 0.00 | 0.00 | 0.00 | 90 | 1014.5 |
| 20260902094025 | 74 | 234 | 0.0 | 0.0 | 0.00 | 0.00 | 0.00 | 89 | 1014.6 |
| 20260902093524 | 75 | 214 | 0.0 | 0.0 | 0.00 | 0.00 | 0.00 | 88 | 1014.5 |
| 20260902093020 | 75 | 238 | 0.0 | 0.0 | 0.00 | 0.00 | 0.00 | 88 | 1014.6 |
| 20260902092514 | 75 | 216 | 0.0 | 0.0 | 0.00 | 0.00 | 0.00 | 88 | 1014.5 |
| 20260902092009 | 75 | 221 | 0.0 | 1.0 | 0.00 | 0.00 | 0.00 | 87 | 1014.3 |
| 20260902091505 | 75 | 220 | 0.0 | 0.0 | 0.00 | 0.00 | 0.00 | 87 | 1014.4 |
| 20260902091000 | 75 | 220 | 0.0 | 0.0 | 0.00 | 0.00 | 0.00 | 87 | 1014.3 |
| 20260902090456 | 75 | 214 | 0.0 | 0.0 | 0.00 | 0.00 | 0.00 | 86 | 1014.4 |
| 20260902085954 | 76 | 197 | 1.0 | 1.0 | 0.00 | 0.00 | 0.00 | 85 | 1014.1 |
| 20260902085450 | 76 | 218 | 0.0 | 0.0 | 0.00 | 0.00 | 0.00 | 85 | 1014.0 |
| 20260902084945 | 76 | 214 | 0.0 | 0.0 | 0.00 | 0.00 | 0.00 | 84 | 1014.1 |
| 20260902084441 | 76 | 200 | 2.0 | 2.0 | 0.00 | 0.00 | 0.00 | 84 | 1014.0 |
| 20260902083937 | 76 | 216 | 0.0 | 1.0 | 0.00 | 0.00 | 0.00 | 84 | 1014.0 |
| 20260902083436 | 77 | 201 | 1.0 | 1.0 | 0.00 | 0.00 | 0.00 | 83 | 1013.8 |
| 20260902082930 | 77 | 189 | 3.0 | 3.0 | 0.00 | 0.00 | 0.00 | 83 | 1013.8 |
| 20260902082421 | 77 | 204 | 2.0 | 2.0 | 0.00 | 0.00 | 0.00 | 82 | 1013.7 |
| 20260902081918 | 77 | 223 | 1.0 | 1.0 | 0.00 | 0.00 | 0.00 | 82 | 1013.7 |
| 20260902081413 | 77 | 218 | 1.0 | 1.0 | 0.00 | 0.00 | 0.00 | 82 | 1013.9 |
| 20260902080908 | 77 | 216 | 0.0 | 0.0 | 0.00 | 0.00 | 0.00 | 81 | 1013.5 |
| 20260902080405 | 77 | 215 | 1.0 | 1.0 | 0.00 | 0.00 | 0.00 | 81 | 1013.6 |
| 20260902075904 | 78 | 216 | 1.0 | 1.0 | 0.00 | 0.00 | 0.00 | 80 | 1013.7 |
| 20260902075400 | 78 | 212 | 1.0 | 2.0 | 0.00 | 0.00 | 0.00 | 80 | 1013.7 |
| 20260902074855 | 78 | 225 | 2.0 | 2.0 | 0.00 | 0.00 | 0.00 | 80 | 1013.7 |
| 20260902074351 | 78 | 218 | 1.0 | 1.0 | 0.00 | 0.00 | 0.00 | 79 | 1013.7 |
| 20260902073845 | 78 | 220 | 1.0 | 2.0 | 0.00 | 0.00 | 0.00 | 79 | 1013.6 |
| 20260902073342 | 78 | 201 | 2.0 | 2.0 | 0.00 | 0.00 | 0.00 | 78 | 1013.5 |
| 20260902072837 | 78 | 228 | 1.0 | 1.0 | 0.00 | 0.00 | 0.00 | 78 | 1013.7 |
| 20260902072332 | 78 | 202 | 2.0 | 2.0 | 0.00 | 0.00 | 0.00 | 78 | 1013.5 |
| 20260902071829 | 79 | 225 | 2.0 | 2.0 | 0.00 | 0.00 | 0.00 | 78 | 1013.8 |
| 20260902071323 | 79 | 239 | 1.0 | 2.0 | 0.00 | 0.00 | 0.00 | 77 | 1013.7 |
| 20260902070820 | 79 | 200 | 2.0 | 2.0 | 0.00 | 0.00 | 0.00 | 77 | 1013.7 |
| 20260902070320 | 79 | 222 | 3.0 | 5.0 | 0.00 | 0.00 | 0.00 | 77 | 1013.8 |
| 20260902065819 | 79 | 223 | 2.0 | 2.0 | 0.00 | 0.00 | 0.00 | 76 | 1013.9 |
| 20260902065314 | 79 | 199 | 3.0 | 5.0 | 0.00 | 0.00 | 0.00 | 76 | 1013.9 |
| 20260902064809 | 79 | 194 | 3.0 | 3.0 | 0.00 | 0.00 | 0.00 | 76 | 1014.0 |
| 20260902064305 | 80 | 221 | 2.0 | 3.0 | 0.00 | 0.00 | 0.00 | 75 | 1014.1 |
| 20260902063801 | 80 | 230 | 2.0 | 2.0 | 0.00 | 0.00 | 0.00 | 75 | 1014.2 |
| 20260902063256 | 80 | 219 | 3.0 | 3.0 | 0.00 | 0.00 | 0.00 | 75 | 1014.1 |
| 20260902062755 | 80 | 210 | 3.0 | 3.0 | 0.00 | 0.00 | 0.00 | 75 | 1014.1 |
| 20260902062250 | 80 | 188 | 3.0 | 3.0 | 0.00 | 0.00 | 0.00 | 75 | 1014.2 |
| 20260902061749 | 80 | 223 | 3.0 | 3.0 | 0.00 | 0.00 | 0.00 | 74 | 1014.2 |
| 20260902061245 | 80 | 230 | 3.0 | 3.0 | 0.00 | 0.00 | 0.00 | 74 | 1014.2 |
| 20260902060741 | 80 | 217 | 2.0 | 2.0 | 0.00 | 0.00 | 0.00 | 74 | 1014.2 |
| 20260902060236 | 80 | 228 | 1.0 | 1.0 | 0.00 | 0.00 | 0.00 | 73 | 1014.2 |
| 20260902055731 | 80 | 249 | 2.0 | 3.0 | 0.00 | 0.00 | 0.00 | 73 | 1014.3 |
| 20260902055228 | 80 | 229 | 2.0 | 2.0 | 0.00 | 0.00 | 0.00 | 73 | 1014.1 |
| 20260902054723 | 80 | 224 | 2.0 | 3.0 | 0.00 | 0.00 | 0.00 | 73 | 1014.2 |
| 20260902054219 | 80 | 227 | 1.0 | 2.0 | 0.00 | 0.00 | 0.00 | 73 | 1014.5 |
| 20260902053714 | 80 | 236 | 2.0 | 2.0 | 0.00 | 0.00 | 0.00 | 73 | 1014.3 |
| 20260902053214 | 80 | 229 | 2.0 | 2.0 | 0.00 | 0.00 | 0.00 | 73 | 1014.3 |
| 20260902052713 | 80 | 204 | 2.0 | 2.0 | 0.00 | 0.00 | 0.00 | 73 | 1014.5 |
| 20260902052209 | 80 | 221 | 1.0 | 1.0 | 0.00 | 0.00 | 0.00 | 73 | 1014.4 |
| 20260902051708 | 80 | 227 | 2.0 | 2.0 | 0.00 | 0.00 | 0.00 | 73 | 1014.5 |
| 20260902051203 | 80 | 231 | 1.0 | 1.0 | 0.00 | 0.00 | 0.00 | 73 | 1014.3 |
| 20260902050703 | 80 | 222 | 2.0 | 2.0 | 0.00 | 0.00 | 0.00 | 73 | 1014.5 |
| 20260902050153 | 80 | 237 | 1.0 | 1.0 | 0.00 | 0.00 | 0.00 | 74 | 1014.5 |
| 20260902045648 | 80 | 228 | 1.0 | 1.0 | 0.00 | 0.00 | 0.00 | 73 | 1014.5 |
| 20260902045144 | 80 | 238 | 1.0 | 1.0 | 0.00 | 0.00 | 0.00 | 74 | 1014.3 |
| 20260902044644 | 80 | 232 | 1.0 | 1.0 | 0.00 | 0.00 | 0.00 | 73 | 1014.4 |
| 20260902044140 | 80 | 241 | 1.0 | 1.0 | 0.00 | 0.00 | 0.00 | 73 | 1014.2 |
| 20260902043634 | 80 | 206 | 2.0 | 2.0 | 0.00 | 0.00 | 0.00 | 73 | 1014.2 |
| 20260902043130 | 80 | 226 | 2.0 | 2.0 | 0.00 | 0.00 | 0.00 | 74 | 1014.3 |
| 20260902042624 | 80 | 220 | 0.0 | 0.0 | 0.00 | 0.00 | 0.00 | 74 | 1014.4 |
| 20260902042120 | 79 | 235 | 0.0 | 0.0 | 0.00 | 0.00 | 0.00 | 75 | 1014.1 |
| 20260902041619 | 79 | 240 | 0.0 | 0.0 | 0.00 | 0.00 | 0.00 | 75 | 1014.4 |
| 20260902041113 | 80 | 237 | 0.0 | 1.0 | 0.00 | 0.00 | 0.00 | 75 | 1014.3 |
| 20260902040608 | 80 | 245 | 0.0 | 0.0 | 0.00 | 0.00 | 0.00 | 74 | 1014.5 |
| 20260902040103 | 80 | 236 | 0.0 | 0.0 | 0.00 | 0.00 | 0.00 | 73 | 1014.4 |
| 20260902035601 | 80 | 188 | 1.0 | 3.0 | 0.00 | 0.00 | 0.00 | 73 | 1014.4 |
| 20260902035057 | 80 | 237 | 0.0 | 0.0 | 0.00 | 0.00 | 0.00 | 74 | 1014.4 |
| 20260902034556 | 80 | 236 | 0.0 | 0.0 | 0.00 | 0.00 | 0.00 | 74 | 1014.2 |
| 20260902034055 | 80 | 225 | 0.0 | 0.0 | 0.00 | 0.00 | 0.00 | 74 | 1014.4 |
| 20260902033554 | 80 | 226 | 0.0 | 0.0 | 0.00 | 0.00 | 0.00 | 73 | 1014.4 |
| 20260902033049 | 80 | 228 | 0.0 | 0.0 | 0.00 | 0.00 | 0.00 | 73 | 1014.2 |
| 20260902032548 | 81 | 236 | 0.0 | 0.0 | 0.00 | 0.00 | 0.00 | 73 | 1014.4 |
| 20260902032043 | 81 | 243 | 1.0 | 1.0 | 0.00 | 0.00 | 0.00 | 72 | 1014.1 |
| 20260902031537 | 81 | 242 | 0.0 | 0.0 | 0.00 | 0.00 | 0.00 | 71 | 1014.1 |
| 20260902031035 | 81 | 217 | 0.0 | 1.0 | 0.00 | 0.00 | 0.00 | 71 | 1014.0 |
| 20260902030534 | 81 | 225 | 0.0 | 0.0 | 0.00 | 0.00 | 0.00 | 71 | 1014.3 |
| 20260902030034 | 82 | 233 | 0.0 | 0.0 | 0.00 | 0.00 | 0.00 | 71 | 1014.2 |
| 20260902025529 | 82 | 230 | 0.0 | 0.0 | 0.00 | 0.00 | 0.00 | 70 | 1013.9 |
| 20260902025024 | 82 | 220 | 0.0 | 1.0 | 0.00 | 0.00 | 0.00 | 70 | 1014.1 |
| 20260902024519 | 82 | 222 | 1.0 | 1.0 | 0.00 | 0.00 | 0.00 | 70 | 1014.0 |
| 20260902024014 | 83 | 236 | 1.0 | 1.0 | 0.00 | 0.00 | 0.00 | 68 | 1013.9 |
| 20260902023510 | 83 | 233 | 1.0 | 1.0 | 0.00 | 0.00 | 0.00 | 68 | 1014.0 |
| 20260902023010 | 83 | 229 | 0.0 | 1.0 | 0.00 | 0.00 | 0.00 | 67 | 1013.8 |
| 20260902022504 | 84 | 208 | 1.0 | 1.0 | 0.00 | 0.00 | 0.00 | 67 | 1013.8 |
| 20260902021959 | 83 | 194 | 1.0 | 2.0 | 0.00 | 0.00 | 0.00 | 67 | 1013.9 |
| 20260902021455 | 84 | 212 | 1.0 | 1.0 | 0.00 | 0.00 | 0.00 | 66 | 1013.8 |
| 20260902020950 | 84 | 212 | 2.0 | 2.0 | 0.00 | 0.00 | 0.00 | 66 | 1013.8 |
| 20260902020446 | 84 | 211 | 1.0 | 1.0 | 0.00 | 0.00 | 0.00 | 67 | 1013.8 |
| 20260902015941 | 84 | 202 | 0.0 | 0.0 | 0.00 | 0.00 | 0.00 | 66 | 1013.8 |
| 20260902015437 | 84 | 217 | 1.0 | 1.0 | 0.00 | 0.00 | 0.00 | 66 | 1013.7 |
| 20260902014932 | 84 | 190 | 2.0 | 2.0 | 0.00 | 0.00 | 0.00 | 65 | 1013.8 |
| 20260902014429 | 84 | 199 | 1.0 | 1.0 | 0.00 | 0.00 | 0.00 | 65 | 1013.9 |
| 20260902013928 | 84 | 198 | 1.0 | 2.0 | 0.00 | 0.00 | 0.00 | 66 | 1013.6 |
| 20260902013424 | 84 | 204 | 0.0 | 0.0 | 0.00 | 0.00 | 0.00 | 66 | 1013.7 |
| 20260902012919 | 84 | 206 | 1.0 | 1.0 | 0.00 | 0.00 | 0.00 | 65 | 1013.5 |
| 20260902012415 | 85 | 207 | 1.0 | 2.0 | 0.00 | 0.00 | 0.00 | 66 | 1013.6 |
| 20260902011910 | 85 | 203 | 1.0 | 1.0 | 0.00 | 0.00 | 0.00 | 65 | 1013.5 |
| 20260902011404 | 85 | 202 | 2.0 | 2.0 | 0.00 | 0.00 | 0.00 | 66 | 1013.6 |
| 20260902010859 | 85 | 199 | 1.0 | 2.0 | 0.00 | 0.00 | 0.00 | 66 | 1013.5 |
| 20260902010353 | 85 | 202 | 1.0 | 1.0 | 0.00 | 0.00 | 0.00 | 67 | 1013.5 |
| 20260902005852 | 86 | 241 | 0.0 | 1.0 | 0.00 | 0.00 | 0.00 | 65 | 1013.4 |
| 20260902005347 | 86 | 201 | 1.0 | 1.0 | 0.00 | 0.00 | 0.00 | 68 | 1013.3 |
| 20260902004843 | 86 | 197 | 1.0 | 1.0 | 0.00 | 0.00 | 0.00 | 66 | 1013.4 |
| 20260902004342 | 86 | 196 | 0.0 | 0.0 | 0.00 | 0.00 | 0.00 | 67 | 1013.1 |
| 20260902003838 | 86 | 196 | 0.0 | 0.0 | 0.00 | 0.00 | 0.00 | 67 | 1013.3 |
| 20260902003333 | 87 | 202 | 0.0 | 1.0 | 0.00 | 0.00 | 0.00 | 66 | 1013.4 |
| 20260902002829 | 87 | 208 | 0.0 | 0.0 | 0.00 | 0.00 | 0.00 | 66 | 1013.4 |
| 20260902002328 | 87 | 201 | 0.0 | 0.0 | 0.00 | 0.00 | 0.00 | 67 | 1013.4 |
| 20260902001823 | 88 | 201 | 0.0 | 0.0 | 0.00 | 0.00 | 0.00 | 65 | 1013.4 |
| 20260902001319 | 88 | 213 | 1.0 | 1.0 | 0.00 | 0.00 | 0.00 | 63 | 1013.3 |
| 20260902000819 | 88 | 196 | 0.0 | 0.0 | 0.00 | 0.00 | 0.00 | 65 | 1013.4 |
| 20260902000313 | 88 | 196 | 0.0 | 0.0 | 0.00 | 0.00 | 0.00 | 65 | 1013.5 |
| 20260901235808 | 89 | 195 | 0.0 | 1.0 | 0.00 | 0.00 | 0.00 | 65 | 1013.5 |
| 20260901235307 | 89 | 196 | 0.0 | 0.0 | 0.00 | 0.00 | 0.00 | 64 | 1013.4 |
| 20260901234803 | 91 | 203 | 0.0 | 0.0 | 0.00 | 0.00 | 0.00 | 67 | 1013.6 |
| 20260901234257 | 91 | 208 | 0.0 | 0.0 | 0.00 | 0.00 | 0.00 | 63 | 1013.5 |
| 20260901233758 | 91 | 208 | 0.0 | 0.0 | 0.00 | 0.00 | 0.00 | 59 | 1013.6 |
| 20260901233253 | 92 | 215 | 0.0 | 1.0 | 0.00 | 0.00 | 0.00 | 59 | 1013.7 |
| 20260901232749 | 93 | 207 | 1.0 | 1.0 | 0.00 | 0.00 | 0.00 | 56 | 1013.7 |
| 20260901232244 | 93 | 206 | 1.0 | 1.0 | 0.00 | 0.00 | 0.00 | 56 | 1013.8 |
| 20260901231740 | 93 | 203 | 1.0 | 1.0 | 0.00 | 0.00 | 0.00 | 54 | 1013.5 |
| 20260901231236 | 94 | 211 | 1.0 | 2.0 | 0.00 | 0.00 | 0.00 | 55 | 1013.5 |
| 20260901230732 | 94 | 221 | 1.0 | 1.0 | 0.00 | 0.00 | 0.00 | 53 | 1013.4 |
| 20260901230231 | 94 | 212 | 1.0 | 1.0 | 0.00 | 0.00 | 0.00 | 52 | 1013.6 |
| 20260901225727 | 95 | 187 | 2.0 | 2.0 | 0.00 | 0.00 | 0.00 | 50 | 1013.4 |
| 20260901225221 | 95 | 198 | 1.0 | 1.0 | 0.00 | 0.00 | 0.00 | 51 | 1013.5 |
| 20260901224717 | 96 | 200 | 1.0 | 1.0 | 0.00 | 0.00 | 0.00 | 49 | 1013.4 |
| 20260901224213 | 96 | 195 | 2.0 | 2.0 | 0.00 | 0.00 | 0.00 | 47 | 1013.3 |
| 20260901223708 | 96 | 208 | 1.0 | 2.0 | 0.00 | 0.00 | 0.00 | 47 | 1013.6 |
| 20260901223203 | 97 | 229 | 1.0 | 1.0 | 0.00 | 0.00 | 0.00 | 47 | 1013.6 |
| 20260901222659 | 96 | 228 | 4.0 | 5.0 | 0.00 | 0.00 | 0.00 | 46 | 1013.6 |
| 20260901222155 | 96 | 198 | 2.0 | 2.0 | 0.00 | 0.00 | 0.00 | 47 | 1013.5 |
| 20260901221651 | 96 | 215 | 2.0 | 2.0 | 0.00 | 0.00 | 0.00 | 48 | 1013.5 |
| 20260901221147 | 96 | 196 | 2.0 | 5.0 | 0.00 | 0.00 | 0.00 | 47 | 1013.7 |
| 20260901220646 | 97 | 181 | 3.0 | 3.0 | 0.00 | 0.00 | 0.00 | 44 | 1013.8 |
| 20260901220145 | 97 | 224 | 2.0 | 3.0 | 0.00 | 0.00 | 0.00 | 43 | 1013.6 |
| 20260901215644 | 97 | 216 | 3.0 | 3.0 | 0.00 | 0.00 | 0.00 | 43 | 1013.7 |
| 20260901215139 | 98 | 199 | 3.0 | 3.0 | 0.00 | 0.00 | 0.00 | 43 | 1013.5 |
| 20260901214636 | 97 | 234 | 1.0 | 1.0 | 0.00 | 0.00 | 0.00 | 44 | 1013.7 |
| 20260901214136 | 98 | 238 | 4.0 | 5.0 | 0.00 | 0.00 | 0.00 | 42 | 1013.6 |
| 20260901213631 | 98 | 238 | 1.0 | 1.0 | 0.00 | 0.00 | 0.00 | 44 | 1013.6 |
| 20260901213126 | 98 | 240 | 1.0 | 1.0 | 0.00 | 0.00 | 0.00 | 45 | 1013.7 |
| 20260901212625 | 98 | 239 | 3.0 | 5.0 | 0.00 | 0.00 | 0.00 | 44 | 1013.6 |
| 20260901212122 | 99 | 181 | 5.0 | 6.0 | 0.00 | 0.00 | 0.00 | 41 | 1013.6 |
| 20260901211621 | 99 | 196 | 2.0 | 2.0 | 0.00 | 0.00 | 0.00 | 40 | 1013.5 |
| 20260901211118 | 99 | 259 | 1.0 | 1.0 | 0.00 | 0.00 | 0.00 | 42 | 1013.8 |
| 20260901210614 | 98 | 254 | 4.0 | 6.0 | 0.00 | 0.00 | 0.00 | 38 | 1013.9 |
| 20260901210110 | 100 | 243 | 3.0 | 3.0 | 0.00 | 0.00 | 0.00 | 38 | 1013.8 |
| 20260901205600 | 98 | 240 | 2.0 | 2.0 | 0.00 | 0.00 | 0.00 | 41 | 1013.9 |
| 20260901205059 | 98 | 229 | 3.0 | 3.0 | 0.00 | 0.00 | 0.00 | 40 | 1013.7 |
| 20260901204555 | 98 | 182 | 6.0 | 7.0 | 0.00 | 0.00 | 0.00 | 41 | 1013.9 |
| 20260901204050 | 98 | 245 | 2.0 | 2.0 | 0.00 | 0.00 | 0.00 | 42 | 1014.0 |
| 20260901203544 | 98 | 223 | 3.0 | 3.0 | 0.00 | 0.00 | 0.00 | 38 | 1013.9 |
| 20260901203040 | 98 | 223 | 3.0 | 3.0 | 0.00 | 0.00 | 0.00 | 39 | 1013.8 |
| 20260901202534 | 98 | 206 | 4.0 | 6.0 | 0.00 | 0.00 | 0.00 | 39 | 1014.1 |
| 20260901202031 | 99 | 211 | 5.0 | 6.0 | 0.00 | 0.00 | 0.00 | 39 | 1014.0 |
| 20260901201526 | 99 | 220 | 1.0 | 2.0 | 0.00 | 0.00 | 0.00 | 42 | 1014.1 |
| 20260901201020 | 98 | 245 | 4.0 | 7.0 | 0.00 | 0.00 | 0.00 | 39 | 1014.2 |
| 20260901200520 | 98 | 209 | 3.0 | 5.0 | 0.00 | 0.00 | 0.00 | 40 | 1014.2 |
| 20260901200020 | 99 | 213 | 2.0 | 3.0 | 0.00 | 0.00 | 0.00 | 40 | 1014.2 |
| 20260901195518 | 99 | 240 | 2.0 | 3.0 | 0.00 | 0.00 | 0.00 | 39 | 1014.3 |
| 20260901195017 | 98 | 229 | 3.0 | 5.0 | 0.00 | 0.00 | 0.00 | 42 | 1014.2 |
| 20260901194512 | 98 | 240 | 3.0 | 3.0 | 0.00 | 0.00 | 0.00 | 40 | 1014.3 |
| 20260901194008 | 99 | 250 | 3.0 | 5.0 | 0.00 | 0.00 | 0.00 | 42 | 1014.4 |
| 20260901193507 | 98 | 185 | 3.0 | 5.0 | 0.00 | 0.00 | 0.00 | 41 | 1014.3 |
| 20260901193002 | 98 | 253 | 5.0 | 7.0 | 0.00 | 0.00 | 0.00 | 40 | 1014.4 |
| 20260901192457 | 98 | 251 | 5.0 | 6.0 | 0.00 | 0.00 | 0.00 | 43 | 1014.4 |
| 20260901191953 | 98 | 208 | 4.0 | 6.0 | 0.00 | 0.00 | 0.00 | 41 | 1014.7 |
| 20260901191449 | 99 | 249 | 5.0 | 7.0 | 0.00 | 0.00 | 0.00 | 41 | 1014.6 |
| 20260901190944 | 98 | 208 | 4.0 | 5.0 | 0.00 | 0.00 | 0.00 | 44 | 1014.6 |
| 20260901190440 | 98 | 240 | 1.0 | 1.0 | 0.00 | 0.00 | 0.00 | 42 | 1014.7 |
| 20260901185938 | 98 | 261 | 2.0 | 2.0 | 0.00 | 0.00 | 0.00 | 46 | 1014.9 |
| 20260901185438 | 98 | 267 | 5.0 | 7.0 | 0.00 | 0.00 | 0.00 | 41 | 1014.9 |
| 20260901184937 | 98 | 246 | 3.0 | 5.0 | 0.00 | 0.00 | 0.00 | 43 | 1014.8 |
| 20260901184432 | 99 | 311 | 2.0 | 3.0 | 0.00 | 0.00 | 0.00 | 43 | 1014.8 |
| 20260901183928 | 98 | 259 | 3.0 | 3.0 | 0.00 | 0.00 | 0.00 | 44 | 1015.0 |
| 20260901183427 | 98 | 276 | 3.0 | 5.0 | 0.00 | 0.00 | 0.00 | 43 | 1014.8 |
| 20260901182923 | 97 | 227 | 2.0 | 3.0 | 0.00 | 0.00 | 0.00 | 46 | 1014.8 |
| 20260901182419 | 97 | 234 | 3.0 | 5.0 | 0.00 | 0.00 | 0.00 | 45 | 1015.1 |
| 20260901181913 | 98 | 244 | 2.0 | 2.0 | 0.00 | 0.00 | 0.00 | 47 | 1015.0 |
| 20260901181409 | 97 | 249 | 2.0 | 3.0 | 0.00 | 0.00 | 0.00 | 44 | 1015.0 |
| 20260901180907 | 98 | 255 | 1.0 | 1.0 | 0.00 | 0.00 | 0.00 | 46 | 1015.3 |
| 20260901180407 | 98 | 242 | 3.0 | 5.0 | 0.00 | 0.00 | 0.00 | 44 | 1015.1 |
| 20260901175905 | 98 | 251 | 2.0 | 2.0 | 0.00 | 0.00 | 0.00 | 44 | 1015.2 |
| 20260901175400 | 97 | 229 | 1.0 | 1.0 | 0.00 | 0.00 | 0.00 | 46 | 1015.3 |
| 20260901174855 | 98 | 227 | 2.0 | 3.0 | 0.00 | 0.00 | 0.00 | 44 | 1015.4 |
| 20260901174351 | 97 | 229 | 3.0 | 3.0 | 0.00 | 0.00 | 0.00 | 45 | 1015.2 |
| 20260901173847 | 98 | 242 | 5.0 | 6.0 | 0.00 | 0.00 | 0.00 | 45 | 1015.3 |
| 20260901173341 | 97 | 216 | 3.0 | 3.0 | 0.00 | 0.00 | 0.00 | 46 | 1015.4 |
| 20260901172838 | 96 | 269 | 3.0 | 5.0 | 0.00 | 0.00 | 0.00 | 46 | 1015.4 |
| 20260901172337 | 96 | 234 | 5.0 | 6.0 | 0.00 | 0.00 | 0.00 | 45 | 1015.5 |
| 20260901171835 | 96 | 208 | 4.0 | 5.0 | 0.00 | 0.00 | 0.00 | 47 | 1015.6 |
| 20260901171334 | 96 | 233 | 1.0 | 1.0 | 0.00 | 0.00 | 0.00 | 48 | 1015.5 |
| 20260901170833 | 95 | 273 | 3.0 | 3.0 | 0.00 | 0.00 | 0.00 | 53 | 1015.7 |
| 20260901170328 | 95 | 232 | 3.0 | 3.0 | 0.00 | 0.00 | 0.00 | 49 | 1015.6 |
| 20260901165828 | 95 | 226 | 2.0 | 2.0 | 0.00 | 0.00 | 0.00 | 52 | 1015.6 |
| 20260901165322 | 95 | 226 | 1.0 | 2.0 | 0.00 | 0.00 | 0.00 | 52 | 1015.7 |
| 20260901164819 | 95 | 226 | 2.0 | 2.0 | 0.00 | 0.00 | 0.00 | 53 | 1015.7 |
| 20260901164314 | 94 | 260 | 2.0 | 3.0 | 0.00 | 0.00 | 0.00 | 52 | 1015.8 |
| 20260901163808 | 95 | 263 | 2.0 | 3.0 | 0.00 | 0.00 | 0.00 | 54 | 1016.0 |
| 20260901163303 | 94 | 256 | 2.0 | 2.0 | 0.00 | 0.00 | 0.00 | 54 | 1015.9 |
| 20260901162758 | 93 | 239 | 3.0 | 3.0 | 0.00 | 0.00 | 0.00 | 55 | 1015.8 |
| 20260901162257 | 93 | 257 | 4.0 | 6.0 | 0.00 | 0.00 | 0.00 | 55 | 1015.9 |
| 20260901161756 | 93 | 249 | 2.0 | 2.0 | 0.00 | 0.00 | 0.00 | 56 | 1016.0 |
| 20260901161250 | 93 | 207 | 3.0 | 5.0 | 0.00 | 0.00 | 0.00 | 57 | 1015.8 |
| 20260901160746 | 92 | 218 | 4.0 | 6.0 | 0.00 | 0.00 | 0.00 | 57 | 1015.8 |
| 20260901160242 | 92 | 250 | 1.0 | 2.0 | 0.00 | 0.00 | 0.00 | 58 | 1016.0 |
| 20260901155741 | 91 | 228 | 3.0 | 3.0 | 0.00 | 0.00 | 0.00 | 58 | 1015.7 |
| 20260901155236 | 91 | 201 | 3.0 | 6.0 | 0.00 | 0.00 | 0.00 | 59 | 1016.0 |
| 20260901154732 | 91 | 213 | 2.0 | 2.0 | 0.00 | 0.00 | 0.00 | 60 | 1016.0 |
| 20260901154226 | 90 | 228 | 0.0 | 1.0 | 0.00 | 0.00 | 0.00 | 60 | 1016.0 |
| 20260901153721 | 91 | 197 | 2.0 | 2.0 | 0.00 | 0.00 | 0.00 | 60 | 1016.0 |
| 20260901153221 | 90 | 268 | 3.0 | 3.0 | 0.00 | 0.00 | 0.00 | 62 | 1016.0 |
| 20260901152715 | 89 | 245 | 2.0 | 2.0 | 0.00 | 0.00 | 0.00 | 63 | 1016.0 |
| 20260901152214 | 89 | 239 | 2.0 | 3.0 | 0.00 | 0.00 | 0.00 | 62 | 1016.1 |
| 20260901151710 | 89 | 198 | 1.0 | 2.0 | 0.00 | 0.00 | 0.00 | 63 | 1016.1 |
| 20260901151209 | 88 | 257 | 2.0 | 3.0 | 0.00 | 0.00 | 0.00 | 63 | 1016.1 |
| 20260901150709 | 87 | 240 | 2.0 | 2.0 | 0.00 | 0.00 | 0.00 | 64 | 1016.2 |
| 20260901150207 | 87 | 256 | 2.0 | 3.0 | 0.00 | 0.00 | 0.00 | 64 | 1016.2 |
| 20260901145705 | 86 | 274 | 2.0 | 2.0 | 0.00 | 0.00 | 0.00 | 65 | 1016.1 |
| 20260901145159 | 86 | 246 | 4.0 | 5.0 | 0.00 | 0.00 | 0.00 | 65 | 1016.3 |